This is the latest recevied weather packets stored in our database for station/object KC3ULW-13. If no packets are shown the sender has not sent any weather packets the latest 10 day(s).
| Time | Temp. | Humidity | Pressure | Rain* | Wind** | Luminosity | Snow |
|---|---|---|---|---|---|---|---|
| 1777831402 | 13.89° C | 39% | 1018.4 hPa | 0 mm | - | 551 W/m² | - |
| 1777831098 | 14.44° C | 40% | 1018.4 hPa | 0 mm | - | 374 W/m² | - |
| 1777830797 | 13.89° C | 41% | 1018.6 hPa | 0 mm | - | 809 W/m² | - |
| 1777830492 | 13.89° C | 40% | 1018.6 hPa | 0 mm | - | 241 W/m² | - |
| 1777830190 | 15° C | 38% | 1018.5 hPa | 0 mm | - | 734 W/m² | - |
| 1777829886 | 13.89° C | 42% | 1018.6 hPa | 0 mm | - | 799 W/m² | - |
| 1777829581 | 13.89° C | 38% | 1018.9 hPa | 0 mm | - | 765 W/m² | - |
| 1777829278 | 13.89° C | 39% | 1018.6 hPa | 0 mm | - | 682 W/m² | - |
| 1777828976 | 13.89° C | 38% | 1018.9 hPa | 0 mm | - | 696 W/m² | - |
| 1777828672 | 14.44° C | 38% | 1018.9 hPa | 0 mm | - | 212 W/m² | - |
| 1777828369 | 13.89° C | 39% | 1019.1 hPa | 0 mm | - | 748 W/m² | - |
| 1777828066 | 13.89° C | 40% | 1019.3 hPa | 0 mm | - | 748 W/m² | - |
| 1777827763 | 13.89° C | 39% | 1019.1 hPa | 0 mm | - | 708 W/m² | - |
| 1777827460 | 13.33° C | 38% | 1019.1 hPa | 0 mm | - | 707 W/m² | - |
| 1777827157 | 13.89° C | 39% | 1019.2 hPa | 0 mm | - | 717 W/m² | - |
| 1777826853 | 13.89° C | 37% | 1019.2 hPa | 0 mm | - | 145 W/m² | - |
| 1777826551 | 13.33° C | 39% | 1019.4 hPa | 0 mm | - | 694 W/m² | - |
| 1777826247 | 12.78° C | 39% | 1019.4 hPa | 0 mm | - | 256 W/m² | - |
| 1777825945 | 13.33° C | 39% | 1019.4 hPa | 0 mm | - | 760 W/m² | - |
| 1777825641 | 13.33° C | 38% | 1019.5 hPa | 0 mm | - | 721 W/m² | - |
| 1777825340 | 12.78° C | 38% | 1019.4 hPa | 0 mm | - | 688 W/m² | - |
| 1777825036 | 12.78° C | 40% | 1019.7 hPa | 0 mm | - | 709 W/m² | - |
| 1777824732 | 11.67° C | 41% | 1019.7 hPa | 0 mm | - | 607 W/m² | - |
| 1777824429 | 12.22° C | 40% | 1019.6 hPa | 0 mm | - | 616 W/m² | - |
| 1777824125 | 12.22° C | 39% | 1019.8 hPa | 0 mm | - | 626 W/m² | - |
* Rain latest hour (hover to see other rain measurements)
** Current wind speed in m/s (hover to see current wind gust speed)